Time[GMT],air_temperature[C](-3m),wind_speed[m/s](-4m),wind_gust[m/s](-4m),visibility[m](-3m),barometric_pressure[millibars](-3m),wind_2_direction[degrees_true](-4m),wind_2_gust[m/s](-4m),wind_2_gust_1s[m/s](-4m),wind_2_min[m/s](-4m),wind_2_percent_good[1](-4m),wind_2_speed[m/s](-4m),wind_direction[degrees_true](-4m),wind_gust_1s[m/s](-4m),wind_min[m/s](-4m)
2016-10-07 14:00,15.3,,,2965,1025.74,10.68,4.01,4.54,2.42,1.00,3.44,,,
2016-10-07 15:00,16.7,,,2964,1025.37,347.43,3.60,3.95,1.93,1.00,3.03,,,
2016-10-07 16:00,15.4,,,2964,1025.12,336.40,1.89,2.57,0.46,1.00,1.52,,,
2016-10-07 17:00,16.9,,,2964,1024.57,179.00,1.77,2.58,0.27,1.00,1.46,,,
2016-10-07 18:00,15.9,,,2964,1024.26,172.40,2.73,3.14,1.32,1.00,2.26,,,
2016-10-07 19:00,16.4,,,2964,1024.02,173.90,2.51,3.03,1.60,1.00,2.26,,,
2016-10-07 20:00,16.5,,,2964,1023.77,167.20,1.87,2.31,0.82,1.00,1.58,,,
2016-10-07 21:00,16.6,,,2964,1023.22,196.40,2.37,2.95,1.14,1.00,1.95,,,
2016-10-07 22:00,15.6,,,2963,1023.46,166.00,0.83,1.25,0.05,1.00,0.61,,,
2016-10-07 23:00,14.7,,,2963,1023.28,216.20,1.39,1.67,0.56,1.00,1.13,,,
2016-10-08 00:00,14.7,,,2964,1023.40,199.50,1.20,1.46,0.73,1.00,1.07,,,
2016-10-08 01:00,14.4,,,2964,1023.34,204.70,1.18,1.41,0.13,1.00,0.71,,,
2016-10-08 02:00,14.4,,,2964,1023.77,250.30,2.09,2.29,0.78,1.00,1.52,,,
2016-10-08 03:00,14.3,,,2964,1023.22,249.50,2.23,2.63,1.45,1.00,1.97,,,
2016-10-08 04:00,14.0,,,2964,1022.54,214.20,1.39,1.66,0.58,1.00,1.15,,,
2016-10-08 05:00,14.2,,,2964,1021.93,165.60,1.39,1.91,0.45,1.00,1.12,,,
2016-10-08 06:00,13.6,,,2965,1021.44,170.90,0.60,0.83,0.03,1.00,0.40,,,
2016-10-08 07:00,14.0,,,2965,1020.82,188.90,1.64,1.89,0.87,1.00,1.38,,,
2016-10-08 08:00,13.9,,,2965,1020.88,244.70,1.62,1.86,0.72,1.00,1.27,,,
2016-10-08 09:00,12.8,,,2965,1021.25,271.50,0.77,0.93,0.07,1.00,0.45,,,
2016-10-08 10:00,12.7,,,2965,1020.94,167.70,2.56,2.72,1.07,1.00,1.86,,,
2016-10-08 11:00,13.1,,,2965,1021.01,179.80,3.36,3.55,1.82,1.00,2.66,,,
2016-10-08 12:00,14.2,,,2965,1021.25,174.20,3.22,3.50,1.79,1.00,2.66,,,
2016-10-08 13:00,14.5,,,2965,1021.31,211.90,3.35,3.76,2.30,1.00,2.87,,,
2016-10-08 14:00,15.1,,,2965,1021.01,200.30,6.66,7.74,3.04,1.00,5.64,,,
2016-10-08 15:00,14.9,,,2965,1021.07,200.00,5.94,6.84,3.35,1.00,5.12,,,
2016-10-08 16:00,15.1,,,2965,1020.33,190.90,5.15,6.47,2.91,1.00,4.54,,,
2016-10-08 17:00,15.0,,,2965,1019.16,179.10,5.83,6.72,2.65,1.00,4.82,,,
2016-10-08 18:00,14.9,,,2965,1018.49,178.60,5.36,6.18,2.78,1.00,4.72,,,
2016-10-08 19:00,15.0,,,2965,1018.31,196.60,6.26,6.61,3.58,1.00,5.24,,,
2016-10-08 20:00,14.9,,,2965,1017.75,193.70,4.86,5.83,2.46,1.00,4.01,,,
2016-10-08 21:00,14.9,,,2965,1016.96,191.10,5.49,5.94,2.95,1.00,4.65,,,
2016-10-08 22:00,,,,,,,,,,,,,,
2016-10-08 23:00,14.9,,,2965,1016.65,197.10,3.65,4.11,1.51,1.00,2.97,,,
2016-10-09 00:00,15.1,,,2965,1016.47,205.70,4.79,5.18,2.83,1.00,4.07,,,
2016-10-09 01:00,15.2,,,2965,1015.73,184.40,6.76,7.33,3.49,1.00,5.44,,,
2016-10-09 02:00,15.4,,,2965,1016.04,206.70,6.28,7.42,3.26,1.00,5.23,,,
2016-10-09 03:00,15.4,,,2965,1015.48,203.10,6.73,8.47,3.78,1.00,5.84,,,
2016-10-09 04:00,15.8,,,2965,1015.42,216.50,7.29,8.36,3.67,1.00,6.06,,,
2016-10-09 05:00,16.1,,,2965,1015.24,215.30,8.30,9.55,4.16,1.00,6.56,,,
2016-10-09 06:00,15.5,,,2965,1014.63,230.60,5.40,6.44,2.87,1.00,4.75,,,
2016-10-09 07:00,15.5,,,2965,1014.26,251.80,6.30,6.84,3.37,1.00,5.22,,,
2016-10-09 08:00,15.6,,,2965,1014.08,295.00,1.94,2.69,0.85,1.00,1.68,,,
2016-10-09 09:00,15.6,,,2965,1014.38,327.40,1.64,2.13,0.02,1.00,0.87,,,
2016-10-09 10:00,,,,,,,,,,,,,,
2016-10-09 11:00,15.0,,,2965,1015.73,11.02,9.81,10.83,5.48,1.00,7.97,,,
2016-10-09 12:00,13.0,,,2965,1016.77,1.66,11.31,12.20,6.48,1.00,9.56,,,
2016-10-09 14:00,11.7,,,2965,1017.57,8.36,10.02,11.19,5.81,1.00,8.82,,,
2016-10-09 15:00,11.8,,,2965,1017.32,30.52,10.14,11.27,6.00,1.00,8.68,,,
2016-10-09 16:00,11.1,,,2965,1017.51,38.11,9.11,9.69,5.13,1.00,7.79,,,
2016-10-09 18:00,11.5,,,2965,1017.94,11.29,5.44,6.27,2.14,1.00,4.53,,,
2016-10-09 19:00,11.7,,,2965,1016.53,17.49,11.10,12.39,5.25,1.00,8.85,,,
2016-10-09 20:00,11.5,,,2965,1016.53,20.08,12.04,13.29,6.65,1.00,10.03,,,
2016-10-09 21:00,11.1,,,2965,1016.53,18.23,11.26,12.25,5.49,1.00,9.59,,,
2016-10-09 22:00,11.1,,,2965,1017.63,33.93,9.98,10.88,5.41,1.00,8.38,,,
2016-10-09 23:00,10.9,,,2965,1017.20,32.95,11.03,11.87,5.54,1.00,8.80,,,
2016-10-10 00:00,11.0,,,2965,1016.59,24.76,12.07,13.37,6.21,1.00,10.09,,,
2016-10-10 01:00,,,,,,,,,,,,,,
2016-10-10 02:00,11.0,,,2965,1015.06,5.60,13.14,14.56,7.35,1.00,11.13,,,
2016-10-10 03:00,10.7,,,2965,1014.38,18.06,15.36,17.85,8.36,1.00,13.12,,,
2016-10-10 04:00,10.1,,,2965,1013.52,16.62,17.27,18.45,9.67,1.00,14.16,,,
2016-10-10 05:00,9.6,,,2965,1014.08,11.27,16.77,19.29,9.17,1.00,13.70,,,
2016-10-10 07:00,9.4,,,2965,1013.16,5.07,14.19,15.69,7.01,1.00,11.63,,,
2016-10-10 08:00,,,,,,,,,,,,,,
2016-10-10 09:00,9.7,,,2966,1012.48,351.34,14.22,15.81,7.28,1.00,11.68,,,
2016-10-10 10:00,9.4,,,2966,1013.09,342.00,14.78,15.64,7.09,1.00,11.89,,,
2016-10-10 11:00,9.1,,,2966,1013.89,341.30,12.89,14.34,7.40,1.00,10.94,,,
2016-10-10 12:00,,,,,,,,,,,,,,
2016-10-10 13:00,9.6,,,2966,1014.99,338.70,14.20,16.13,7.96,1.00,12.12,,,
2016-10-10 14:00,,,,,,,,,,,,,,
2016-10-10 15:00,11.2,,,2966,1015.42,349.91,14.19,16.15,7.76,1.00,11.95,,,
2016-10-10 16:00,,,,,,,,,,,,,,
2016-10-10 17:00,12.3,,,2965,1015.97,348.51,12.14,13.56,5.91,1.00,10.16,,,
2016-10-10 18:00,13.2,,,2965,1016.04,347.51,13.89,15.62,6.23,1.00,10.88,,,
2016-10-10 19:00,13.5,,,2965,1016.65,347.48,13.10,15.33,7.44,1.00,11.14,,,
2016-10-10 20:00,13.5,,,2965,1017.45,343.70,13.96,15.28,6.78,1.00,11.42,,,
2016-10-10 21:00,13.4,,,2966,1018.61,350.62,12.65,13.89,7.11,1.00,10.52,,,
2016-10-10 22:00,12.9,,,2965,1019.84,354.81,12.61,13.94,5.98,1.00,10.47,,,
2016-10-10 23:00,12.7,,,2966,1021.62,341.30,9.07,9.82,4.78,1.00,7.25,,,
2016-10-11 00:00,,,,,,,,,,,,,,
2016-10-11 01:00,11.9,,,2966,1023.71,356.60,8.85,9.52,5.02,1.00,7.39,,,
2016-10-11 02:00,11.3,,,2966,1024.45,353.44,8.48,9.43,5.19,1.00,7.44,,,
2016-10-11 03:00,10.8,,,2966,1025.12,347.16,9.58,10.27,5.41,1.00,7.82,,,
2016-10-11 04:00,,,,,,,,,,,,,,
2016-10-11 05:00,9.9,,,2966,1026.17,334.10,9.38,10.35,5.17,1.00,7.94,,,
2016-10-11 06:00,9.8,,,2966,1026.84,334.30,8.57,10.19,5.09,1.00,7.21,,,
2016-10-11 07:00,,,,,,,,,,,,,,
2016-10-11 08:00,,,,,,,,,,,,,,
2016-10-11 09:00,10.0,,,2966,1028.01,334.20,8.57,9.90,4.17,1.00,7.00,,,
2016-10-11 10:00,8.5,,,2966,1028.94,290.90,5.33,5.72,2.80,1.00,4.38,,,
2016-10-11 11:00,8.9,,,2966,1029.37,299.40,3.87,4.23,1.54,1.00,2.89,,,
2016-10-11 12:00,8.3,,,2966,1030.04,276.80,3.79,3.94,2.17,1.00,3.07,,,
2016-10-11 13:00,,,,,,,,,,,,,,
2016-10-11 14:00,,,,,,,,,,,,,,
2016-10-11 16:00,11.5,,,2965,1030.66,30.02,1.50,1.72,0.11,1.00,0.99,,,
2016-10-11 17:00,11.7,,,2965,1030.11,147.60,2.75,2.97,0.85,1.00,2.12,,,
2016-10-11 18:00,12.3,,,2965,1029.61,187.40,5.49,5.66,3.15,1.00,4.49,,,
2016-10-11 19:00,12.6,,,2965,1029.18,199.00,7.32,8.29,4.66,1.00,6.33,,,
2016-10-11 20:00,12.8,,,2965,1028.81,208.90,7.68,8.59,4.55,1.00,6.81,,,
2016-10-11 21:00,12.9,,,2965,1028.87,222.30,8.11,8.74,3.87,1.00,6.75,,,
2016-10-11 22:00,12.9,,,2965,1028.75,232.50,7.75,8.89,4.34,1.00,6.78,,,
2016-10-11 23:00,12.9,,,2965,1028.94,234.40,7.43,8.71,4.33,1.00,6.58,,,
2016-10-12 00:00,13.0,,,2965,1029.06,238.00,5.83,6.45,3.22,1.00,4.84,,,
2016-10-12 01:00,12.9,,,2965,1029.24,235.90,5.75,6.18,2.82,1.00,4.64,,,
2016-10-12 02:00,13.1,,,2965,1029.12,225.30,4.19,4.84,2.47,1.00,3.68,,,
2016-10-12 03:00,13.3,,,2965,1029.06,232.50,4.87,5.53,2.95,1.00,4.35,,,
2016-10-12 04:00,12.8,,,2965,1029.12,242.80,3.53,3.86,2.32,1.00,3.13,,,
2016-10-12 05:00,12.5,,,2965,1029.00,250.30,3.10,3.64,1.95,1.00,2.73,,,
2016-10-12 06:00,12.4,,,2965,1028.87,248.80,3.01,3.39,1.58,1.00,2.38,,,
2016-10-12 07:00,12.1,,,2965,1028.57,269.10,2.24,2.59,1.06,1.00,1.82,,,
2016-10-12 08:00,12.1,,,2965,1028.44,217.80,2.40,2.94,0.96,1.00,1.90,,,
2016-10-12 09:00,12.5,,,2965,1028.50,228.60,2.30,2.94,1.09,1.00,1.91,,,
2016-10-12 10:00,13.0,,,2965,1028.26,221.20,4.26,4.76,2.51,1.00,3.69,,,
2016-10-12 11:00,13.3,,,2965,1028.32,210.60,4.43,5.11,2.73,1.00,3.88,,,
2016-10-12 13:00,13.4,,,2965,1028.87,191.70,5.70,6.44,3.20,1.00,4.96,,,
2016-10-12 14:00,13.8,,,2965,1028.87,189.00,5.85,6.59,3.08,1.00,4.93,,,
2016-10-12 15:00,13.8,,,2965,1028.75,196.10,5.88,7.07,3.12,1.00,5.03,,,
2016-10-12 16:00,13.7,,,2965,1028.44,194.90,5.72,6.79,3.13,1.00,5.07,,,
2016-10-12 17:00,13.8,,,2965,1027.64,186.10,6.61,7.47,3.46,1.00,5.59,,,
2016-10-12 18:00,13.8,,,2965,1027.27,184.60,5.35,6.13,2.75,1.00,4.57,,,
2016-10-12 19:00,13.9,,,2965,1026.97,199.80,5.60,6.77,2.94,1.00,4.69,,,
2016-10-12 20:00,13.9,,,2965,1026.54,196.40,5.32,5.94,2.67,1.00,4.51,,,
2016-10-12 21:00,13.8,,,2965,1025.92,172.50,5.71,6.34,2.99,1.00,4.76,,,
2016-10-12 22:00,13.4,,,2965,1025.61,178.00,4.74,5.34,2.46,1.00,4.14,,,
2016-10-12 23:00,13.4,,,2965,1025.49,172.50,5.46,5.95,3.64,1.00,4.80,,,
2016-10-13 00:00,13.3,,,2965,1025.00,163.00,5.27,5.81,3.48,1.00,4.66,,,
2016-10-13 01:00,13.5,,,2965,1024.81,162.40,5.33,6.07,3.07,1.00,4.57,,,
2016-10-13 02:00,13.6,,,2965,1024.45,153.40,5.50,6.09,2.79,1.00,4.40,,,
2016-10-13 03:00,13.6,,,2965,1023.95,166.70,5.59,6.99,2.77,1.00,4.73,,,
2016-10-13 04:00,13.7,,,2965,1023.16,165.60,6.93,7.76,3.46,1.00,5.51,,,
2016-10-13 05:00,13.8,,,2965,1022.97,173.80,5.09,6.13,2.72,1.00,4.43,,,
2016-10-13 06:00,13.9,,,2965,1022.11,180.90,5.52,6.10,3.16,1.00,4.61,,,
2016-10-13 07:00,14.0,,,2965,1021.31,179.50,6.21,7.01,3.12,1.00,5.18,,,
2016-10-13 08:00,13.9,,,2965,1020.76,181.90,5.70,6.20,3.15,1.00,4.61,,,
2016-10-13 09:00,14.0,,,2965,1020.39,177.40,5.45,5.97,2.77,1.00,4.61,,,
2016-10-13 10:00,13.9,,,2965,1019.96,183.40,4.76,5.36,2.84,1.00,4.08,,,
2016-10-13 11:00,13.9,,,2965,1019.72,181.10,5.26,5.91,3.22,1.00,4.61,,,
2016-10-13 12:00,13.9,,,2965,1019.41,182.40,6.09,7.05,3.42,1.00,5.30,,,
2016-10-13 13:00,13.9,,,2965,1019.16,179.20,6.31,7.41,3.52,1.00,5.34,,,
2016-10-13 14:00,14.0,,,2965,1018.73,181.50,6.37,7.08,2.76,1.00,5.23,,,
2016-10-13 15:00,14.1,,,2965,1017.94,175.10,6.49,7.27,3.40,1.00,5.43,,,
2016-10-13 16:00,14.3,,,2965,1016.96,168.30,6.24,7.36,3.78,1.00,5.32,,,
2016-10-13 17:00,14.4,,,2965,1016.53,215.60,4.24,5.11,2.31,1.00,3.54,,,
2016-10-13 18:00,14.4,,,2965,1015.55,188.30,4.75,5.28,2.23,1.00,3.81,,,
2016-10-13 19:00,14.4,,,2965,1014.93,177.60,6.75,7.53,3.75,1.00,5.87,,,
2016-10-13 20:00,14.5,,,2965,1014.50,175.00,7.90,8.61,3.53,1.00,6.46,,,
2016-10-13 21:00,14.4,,,2965,1014.44,186.60,6.61,7.33,4.05,1.00,5.50,,,
2016-10-13 22:00,14.4,,,2965,1014.01,204.30,4.86,5.31,2.42,1.00,3.94,,,
2016-10-13 23:00,14.5,,,2965,1013.89,209.30,4.69,5.35,0.78,1.00,4.07,,,
2016-10-14 00:00,14.4,,,2965,1013.77,245.30,4.61,5.26,2.88,1.00,3.90,,,
2016-10-14 01:00,14.4,,,2965,1014.08,233.30,3.63,4.23,2.19,1.00,3.08,,,
2016-10-14 02:00,14.4,,,2965,1014.38,257.00,2.17,2.65,0.88,1.00,1.66,,,
2016-10-14 03:00,14.3,,,2965,1014.44,274.50,3.72,4.08,1.76,1.00,2.78,,,
2016-10-14 04:00,13.4,,,2965,1015.30,315.90,11.61,12.38,6.12,1.00,9.73,,,
2016-10-14 05:00,12.4,,,2965,1016.65,319.30,11.12,11.74,6.09,1.00,8.84,,,
2016-10-14 06:00,,,,,,,,,,,,,,
2016-10-14 07:00,10.9,,,2966,1017.94,327.30,13.04,14.25,6.33,1.00,10.89,,,
2016-10-14 08:00,,,,,,,,,,,,,,
2016-10-14 09:00,8.5,,,2966,1019.59,335.80,14.86,15.75,7.45,1.00,11.85,,,
2016-10-14 10:00,8.4,,,2966,1021.01,337.50,10.84,12.02,5.37,1.00,9.10,,,
2016-10-14 11:00,7.8,,,2966,1022.17,337.90,11.58,12.53,5.48,1.00,8.53,,,
2016-10-14 12:00,7.7,,,2966,1023.22,342.60,12.67,14.23,6.74,1.00,10.57,,,
2016-10-14 14:00,8.1,,,2966,1024.75,341.70,12.46,13.75,6.15,1.00,10.27,,,
2016-10-14 16:00,9.1,,,2966,1025.12,355.80,7.87,8.65,4.15,1.00,6.57,,,
2016-10-14 17:00,,,,,,,,,,,,,,
2016-10-14 18:00,,,,,,,,,,,,,,
2016-10-14 19:00,11.9,,,2966,1024.57,357.02,8.80,9.53,4.34,1.00,7.14,,,
2016-10-14 20:00,12.1,,,2966,1025.24,339.00,8.77,9.70,4.52,1.00,7.43,,,
2016-10-14 21:00,,,,,,,,,,,,,,
2016-10-14 22:00,11.6,,,2966,1026.17,355.05,9.41,10.65,4.86,1.00,7.91,,,
2016-10-14 23:00,11.2,,,2966,1026.66,336.90,8.73,9.20,3.83,1.00,6.54,,,
2016-10-15 00:00,10.9,,,2966,1027.34,339.70,8.34,9.00,3.68,1.00,6.57,,,
2016-10-15 01:00,10.5,,,2966,1027.77,7.67,9.28,10.22,4.68,1.00,7.70,,,
2016-10-15 02:00,,,,,,,,,,,,,,
2016-10-15 03:00,,,,,,,,,,,,,,
2016-10-15 04:00,,,,,,,,,,,,,,
2016-10-15 06:00,8.9,,,2966,1028.57,42.56,8.42,9.05,4.90,1.00,6.97,,,
2016-10-15 07:00,8.6,,,2966,1028.94,38.71,8.34,9.54,4.74,1.00,6.95,,,
2016-10-15 08:00,8.1,,,2966,1029.18,26.25,6.84,7.84,0.00,1.00,5.58,,,
2016-10-15 09:00,7.7,,,2966,1030.23,15.45,5.95,6.66,2.43,1.00,4.64,,,
2016-10-15 10:00,7.5,,,2966,1030.54,25.32,5.98,7.16,2.12,1.00,4.31,,,
2016-10-15 11:00,7.5,,,2966,1030.72,27.47,6.09,6.71,2.70,1.00,4.54,,,
2016-10-15 12:00,7.6,,,2966,1031.15,20.33,6.20,7.15,3.00,1.00,4.93,,,
2016-10-15 14:00,8.0,,,2966,1031.34,24.44,5.38,6.22,2.23,1.00,4.12,,,
2016-10-15 15:00,8.4,,,2966,1031.52,31.68,4.75,5.45,1.29,1.00,3.17,,,
2016-10-15 16:00,8.6,,,2966,1030.97,8.59,2.30,2.65,0.16,1.00,1.41,,,
2016-10-15 17:00,9.0,,,2966,1030.41,4.13,2.41,2.81,0.46,1.00,1.54,,,
2016-10-15 18:00,9.0,,,2965,1029.86,170.60,2.83,3.07,0.39,1.00,1.92,,,
2016-10-15 19:00,9.6,,,2965,1029.49,192.20,2.30,2.58,0.01,1.00,1.18,,,
2016-10-15 20:00,10.8,,,2965,1029.18,190.60,2.85,3.16,1.21,1.00,2.16,,,
2016-10-15 21:00,9.8,,,2965,1029.00,202.80,4.01,4.40,1.82,1.00,2.96,,,
2016-10-15 22:00,9.5,,,2965,1028.26,189.40,3.76,4.37,1.19,1.00,2.74,,,
2016-10-15 23:00,9.6,,,2965,1027.77,203.40,4.86,5.19,2.34,1.00,3.75,,,
2016-10-16 00:00,9.7,,,2965,1027.27,209.30,4.81,4.97,2.53,1.00,3.73,,,
2016-10-16 01:00,9.9,,,2966,1027.34,208.50,6.02,6.26,2.92,1.00,4.61,,,
2016-10-16 02:00,10.0,,,2966,1026.84,203.40,5.96,6.78,3.56,1.00,5.05,,,
2016-10-16 03:00,10.2,,,2966,1026.35,207.00,5.93,6.55,2.92,1.00,4.74,,,
2016-10-16 04:00,10.4,,,2966,1025.43,198.00,5.72,6.47,2.70,1.00,4.82,,,
2016-10-16 05:00,10.8,,,2966,1024.81,203.90,6.68,7.64,2.94,1.00,5.37,,,
2016-10-16 06:00,11.1,,,2966,1024.57,211.60,7.84,9.67,4.42,1.00,6.72,,,
2016-10-16 07:00,11.5,,,2966,1023.59,212.20,8.48,9.12,4.01,1.00,6.85,,,
2016-10-16 08:00,11.8,,,2966,1022.79,207.60,8.71,10.04,4.45,1.00,7.24,,,
2016-10-16 09:00,12.3,,,2966,1021.99,210.20,9.43,10.62,4.67,1.00,7.83,,,
2016-10-16 10:00,12.7,,,2965,1021.74,208.10,9.87,10.72,5.00,1.00,7.92,,,
2016-10-16 11:00,12.9,,,2966,1020.76,218.70,9.69,11.65,4.95,1.00,8.03,,,
2016-10-16 12:00,13.0,,,2966,1020.21,219.30,8.83,9.86,4.73,1.00,7.52,,,
2016-10-16 13:00,13.1,,,2966,1019.59,223.60,10.62,12.01,5.35,1.00,8.70,,,
2016-10-16 14:00,13.2,,,2966,1018.43,218.60,10.31,11.39,4.33,1.00,8.18,,,
2016-10-16 15:00,13.4,,,2966,1017.45,222.70,11.94,12.77,5.88,1.00,8.90,,,
2016-10-16 16:00,13.4,,,2966,1016.71,224.10,10.06,10.85,5.03,1.00,8.14,,,
2016-10-16 17:00,13.6,,,2966,1015.36,209.70,8.72,10.22,3.87,1.00,7.31,,,
2016-10-16 18:00,13.8,,,2965,1014.81,220.00,9.52,10.61,4.81,1.00,7.71,,,
2016-10-16 19:00,13.8,,,2965,1013.89,211.40,9.48,10.48,4.42,1.00,7.86,,,
2016-10-16 20:00,13.9,,,2965,1013.22,213.30,9.15,10.24,4.02,1.00,7.56,,,
2016-10-16 21:00,14.2,,,2965,1011.99,216.30,11.66,13.59,6.33,1.00,9.47,,,
2016-10-16 22:00,14.4,,,2965,1011.63,234.80,9.39,10.29,5.04,1.00,7.45,,,
2016-10-16 23:00,14.4,,,2965,1011.26,222.20,7.04,7.43,4.00,1.00,5.72,,,
2016-10-17 00:00,14.6,,,2965,1010.52,224.80,6.75,7.76,3.78,1.00,5.59,,,
2016-10-17 01:00,14.7,,,2965,1010.22,236.50,7.35,8.16,4.59,1.00,6.42,,,
2016-10-17 02:00,15.1,,,2965,1009.61,235.20,8.46,9.59,5.19,1.00,7.40,,,
2016-10-17 03:00,14.5,,,2965,1008.81,225.70,7.16,8.25,4.29,1.00,6.26,,,
2016-10-17 04:00,14.4,,,2965,1008.75,236.80,4.90,5.59,3.11,1.00,4.35,,,
2016-10-17 05:00,14.6,,,2965,1008.75,234.30,5.37,6.10,3.16,1.00,4.37,,,
2016-10-17 06:00,14.6,,,2965,1008.57,233.40,5.32,5.96,3.29,1.00,4.68,,,
2016-10-17 07:00,14.4,,,2965,1008.69,245.80,4.26,4.76,2.58,1.00,3.72,,,
2016-10-17 08:00,14.9,,,2965,1008.63,257.40,2.23,2.62,0.46,1.00,1.64,,,
2016-10-17 09:00,15.4,,,2965,1009.12,261.60,1.24,1.94,0.03,1.00,0.85,,,
2016-10-17 10:00,,,,,,,,,,,,,,
2016-10-17 11:00,15.8,,,2965,1010.22,310.50,3.65,4.29,1.98,1.00,3.04,,,
2016-10-17 12:00,14.5,,,2965,1010.52,269.80,3.54,3.96,2.20,1.00,3.14,,,
2016-10-17 13:00,14.7,,,2965,1010.83,232.00,2.92,3.46,1.79,1.00,2.64,,,
2016-10-17 14:00,14.7,,,2965,1010.65,207.90,2.76,3.31,1.23,1.00,2.29,,,
2016-10-17 15:00,14.4,,,2965,1010.28,187.50,4.01,4.49,2.75,1.00,3.61,,,
2016-10-17 16:00,16.4,,,2965,1010.22,133.40,2.48,2.75,0.70,1.00,1.86,,,
2016-10-17 17:00,17.0,,,2965,1010.03,171.10,3.02,3.80,0.42,1.00,1.87,,,
2016-10-17 18:00,16.3,,,2965,1009.48,202.40,5.23,6.07,1.61,1.00,3.42,,,
2016-10-17 19:00,16.1,,,2965,1009.85,225.10,7.89,9.31,4.06,1.00,6.35,,,
2016-10-17 20:00,15.8,,,2965,1009.54,226.90,6.98,8.36,3.59,1.00,6.19,,,
2016-10-17 21:00,16.0,,,2965,1009.73,244.50,5.99,6.55,2.98,1.00,4.86,,,
2016-10-17 22:00,15.0,,,2965,1010.65,261.20,3.41,3.87,1.42,1.00,2.86,,,
2016-10-17 23:00,15.6,,,2965,1011.56,269.90,2.28,2.73,0.97,1.00,1.84,,,
2016-10-18 00:00,15.6,,,2965,1012.18,34.31,7.71,8.94,3.38,1.00,5.96,,,
2016-10-18 01:00,14.8,,,2965,1012.85,32.35,6.77,7.43,2.92,1.00,5.05,,,
2016-10-18 02:00,13.8,,,2965,1013.58,31.99,6.14,7.07,3.36,1.00,5.23,,,
2016-10-18 03:00,13.1,,,2965,1013.77,43.66,6.13,6.69,2.99,1.00,5.09,,,
2016-10-18 04:00,12.7,,,2965,1014.14,53.02,6.43,7.28,3.52,1.00,5.34,,,
2016-10-18 05:00,,,,,,,,,,,,,,
2016-10-18 06:00,12.3,,,2965,1014.75,61.30,5.28,5.78,3.31,1.00,4.55,,,
2016-10-18 07:00,,,,,,,,,,,,,,
2016-10-18 08:00,12.1,,,2965,1015.18,78.70,7.09,7.45,3.84,1.00,5.41,,,
2016-10-18 09:00,12.2,,,2965,1015.67,83.90,6.89,7.42,3.65,1.00,5.57,,,
2016-10-18 10:00,12.3,,,2966,1015.91,79.90,5.34,6.20,3.06,1.00,4.41,,,
2016-10-18 11:00,12.2,,,2966,1016.22,81.90,4.83,5.68,2.23,1.00,3.71,,,
2016-10-18 12:00,12.2,,,2966,1016.40,87.40,5.87,6.54,4.01,1.00,5.21,,,
2016-10-18 13:00,12.1,,,2966,1016.89,67.70,4.36,5.32,2.24,1.00,3.61,,,
2016-10-18 14:00,12.6,,,2965,1016.04,89.10,5.79,6.28,3.50,1.00,4.81,,,
2016-10-18 15:00,12.8,,,2966,1015.24,105.70,7.96,8.57,4.43,1.00,6.52,,,
2016-10-18 16:00,13.0,,,2966,1014.81,108.00,8.28,9.16,4.10,1.00,6.67,,,
2016-10-18 17:00,13.0,,,2965,1014.14,114.60,7.18,7.92,3.07,1.00,5.71,,,
2016-10-18 19:00,,,,,,,,,,,,,,
2016-10-18 20:00,13.4,,,2966,1011.20,133.60,7.48,8.47,4.12,1.00,6.30,,,
2016-10-18 21:00,13.6,,,2966,1010.52,142.20,7.28,8.08,3.60,1.00,6.20,,,
2016-10-18 22:00,13.8,,,2965,1010.03,160.30,8.07,8.93,4.41,1.00,6.51,,,
2016-10-18 23:00,13.8,,,2966,1009.67,166.70,6.33,7.45,3.24,1.00,5.51,,,
2016-10-19 00:00,13.6,,,2965,1009.30,159.40,6.09,6.92,3.06,1.00,4.94,,,
2016-10-19 01:00,13.7,,,2965,1008.63,169.20,5.55,6.22,3.60,1.00,4.95,,,
2016-10-19 02:00,13.7,,,2965,1007.83,180.50,6.09,6.84,4.20,1.00,5.55,,,
2016-10-19 03:00,13.6,,,2965,1007.22,197.50,6.83,7.35,4.51,1.00,5.75,,,
2016-10-19 04:00,14.2,,,2965,1006.85,214.90,6.32,6.66,4.00,1.00,5.36,,,
2016-10-19 05:00,14.3,,,2965,1006.24,217.60,8.35,9.21,5.06,1.00,7.10,,,
2016-10-19 06:00,14.2,,,2965,1006.12,220.90,8.44,9.22,4.87,1.00,7.08,,,
2016-10-19 07:00,14.1,,,2965,1006.06,230.50,5.94,6.60,2.74,1.00,4.82,,,
2016-10-19 08:00,14.3,,,2965,1006.18,225.30,7.84,8.83,4.69,1.00,6.57,,,
2016-10-19 09:00,14.8,,,2965,1007.16,260.50,3.50,4.12,1.29,1.00,2.83,,,
2016-10-19 10:00,14.3,,,2965,1006.98,220.00,4.59,5.11,2.34,1.00,3.64,,,
2016-10-19 11:00,14.2,,,2965,1007.46,218.60,3.49,4.32,1.94,1.00,3.01,,,
2016-10-19 12:00,14.2,,,2965,1008.57,213.90,3.45,4.11,1.24,1.00,2.88,,,
2016-10-19 13:00,14.4,,,2965,1009.48,239.20,2.66,3.20,1.23,1.00,2.18,,,
2016-10-19 14:00,15.1,,,2965,1010.16,246.70,2.47,3.17,1.28,1.00,2.22,,,
2016-10-19 15:00,17.1,,,2965,1010.52,228.40,1.89,2.58,0.10,1.00,1.20,,,
2016-10-19 16:00,18.7,,,2965,1010.58,301.80,5.74,6.83,2.74,1.00,4.66,,,
2016-10-19 17:00,19.7,,,2965,1010.52,316.50,8.03,9.10,3.46,1.00,6.28,,,
2016-10-19 18:00,20.2,,,2965,1010.89,314.20,7.49,8.97,3.63,1.00,6.03,,,
2016-10-19 19:00,20.6,,,2965,1011.32,311.70,9.10,10.28,5.10,1.00,7.77,,,
2016-10-19 20:00,20.0,,,2965,1012.30,322.00,7.44,8.26,3.57,1.00,5.59,,,
2016-10-19 21:00,19.0,,,2965,1013.52,322.10,5.86,6.58,3.35,1.00,4.75,,,
2016-10-19 22:00,18.9,,,2965,1015.06,292.30,4.79,5.08,2.80,1.00,4.03,,,
2016-10-19 23:00,17.4,,,2965,1016.22,305.00,4.89,5.45,3.48,1.00,4.43,,,
2016-10-20 00:00,,,,,,,,,,,,,,
2016-10-20 01:00,15.9,,,2965,1018.12,326.20,4.41,5.23,1.93,1.00,3.50,,,
2016-10-20 02:00,,,,,,,,,,,,,,
2016-10-20 03:00,14.8,,,2965,1019.72,344.97,5.50,6.73,2.67,1.00,4.52,,,
2016-10-20 04:00,14.2,,,2965,1020.51,4.92,6.23,7.59,3.05,1.00,5.12,,,
2016-10-20 05:00,13.9,,,2965,1021.31,8.10,4.29,5.23,1.96,1.00,3.46,,,
2016-10-20 06:00,13.5,,,2965,1021.44,8.13,6.89,7.76,4.04,1.00,5.86,,,
2016-10-20 07:00,13.2,,,2965,1021.87,26.23,5.35,5.85,2.60,1.00,4.23,,,
2016-10-20 08:00,12.7,,,2965,1022.23,76.30,4.35,4.80,2.36,1.00,3.25,,,
2016-10-20 09:00,,,,,,,,,,,,,,
2016-10-20 10:00,,,,,,,,,,,,,,
2016-10-20 11:00,11.9,,,2966,1024.63,72.10,3.64,4.08,2.14,1.00,3.23,,,
2016-10-20 12:00,12.7,,,2966,1025.49,90.80,3.77,4.21,1.63,1.00,2.97,,,
2016-10-20 13:00,12.5,,,2966,1025.68,68.50,4.16,4.62,2.38,1.00,3.51,,,
2016-10-20 14:00,12.7,,,2966,1026.29,92.40,5.09,5.67,2.17,1.00,4.03,,,
2016-10-20 15:00,13.0,,,2966,1025.86,104.70,4.72,5.07,1.77,1.00,3.53,,,
2016-10-20 16:00,12.7,,,2965,1025.68,126.40,5.37,5.86,3.24,1.00,4.59,,,
2016-10-20 17:00,12.9,,,2965,1025.31,110.90,4.96,5.60,2.60,1.00,4.06,,,
2016-10-20 18:00,13.0,,,2965,1024.75,129.00,5.78,6.46,3.25,1.00,4.76,,,
2016-10-20 19:00,13.0,,,2965,1024.75,125.30,4.66,5.26,2.65,1.00,4.04,,,
2016-10-20 20:00,13.0,,,2965,1025.43,120.30,3.65,4.33,1.88,1.00,3.10,,,
2016-10-20 21:00,13.1,,,2965,1024.81,105.60,3.30,3.84,1.68,1.00,2.81,,,
2016-10-20 22:00,12.9,,,2965,1023.77,100.30,7.33,8.13,3.36,1.00,5.98,,,
2016-10-20 23:00,12.8,,,2965,1023.83,105.20,7.28,8.14,3.45,1.00,5.74,,,
2016-10-21 00:00,13.0,,,2965,1023.34,114.40,8.75,9.31,5.23,1.00,7.36,,,
2016-10-21 01:00,13.2,,,2965,1022.54,117.70,8.16,9.05,4.23,1.00,6.66,,,
2016-10-21 02:00,13.3,,,2966,1022.23,120.70,7.57,8.29,3.71,1.00,6.00,,,
2016-10-21 03:00,13.4,,,2966,1021.37,126.40,8.44,9.78,4.84,1.00,7.20,,,
2016-10-21 04:00,13.4,,,2965,1020.58,132.60,8.75,9.50,4.19,1.00,6.81,,,
2016-10-21 05:00,13.4,,,2965,1019.59,134.90,9.22,9.93,3.94,1.00,7.33,,,
2016-10-21 06:00,13.4,,,2965,1018.49,123.00,7.55,8.36,3.63,1.00,6.29,,,
2016-10-21 07:00,13.5,,,2965,1017.45,123.80,8.74,10.45,4.76,1.00,7.39,,,
2016-10-21 08:00,13.3,,,2966,1015.79,91.10,8.35,9.36,4.88,1.00,7.05,,,
2016-10-21 09:00,13.4,,,2965,1015.12,94.90,6.94,8.05,3.46,1.00,5.31,,,
2016-10-21 10:00,14.2,,,2966,1014.26,142.10,7.95,8.94,0.68,1.00,5.48,,,
2016-10-21 11:00,14.3,,,2965,1013.09,157.00,11.76,12.74,1.57,1.00,9.73,,,
2016-10-21 12:00,14.8,,,2965,1013.03,161.60,10.46,11.60,5.24,1.00,8.59,,,
2016-10-21 14:00,,,,,,,,,,,,,,
2016-10-21 15:00,14.9,,,2966,1011.87,168.70,7.69,9.05,4.30,1.00,6.59,,,
2016-10-21 16:00,,,,,,,,,,,,,,
2016-10-21 17:00,14.2,,,2965,1010.09,146.80,8.69,9.88,5.05,1.00,7.42,,,
2016-10-21 18:00,14.2,,,2965,1008.87,146.50,8.96,10.28,5.27,1.00,7.81,,,
2016-10-21 19:00,14.2,,,2965,1008.20,138.40,7.50,8.53,3.74,1.00,6.42,,,
2016-10-21 20:00,14.3,,,2966,1007.22,134.50,8.15,9.13,4.27,1.00,6.82,,,
2016-10-21 21:00,14.1,,,2965,1006.73,124.90,7.09,8.09,4.26,1.00,6.14,,,
2016-10-21 22:00,14.2,,,2965,1005.81,122.90,7.59,8.47,4.18,1.00,6.70,,,
2016-10-21 23:00,14.1,,,2965,1005.20,118.10,9.65,10.47,5.51,1.00,8.08,,,
2016-10-22 01:00,15.1,,,2965,1002.33,109.70,10.92,11.85,5.60,1.00,9.05,,,
2016-10-22 02:00,15.4,,,2965,1000.99,102.10,9.94,11.33,5.80,1.00,8.33,,,
2016-10-22 03:00,15.6,,,2965,998.67,108.40,11.89,13.08,5.69,1.00,9.61,,,
2016-10-22 04:00,14.9,,,2965,997.57,116.80,10.43,11.63,5.27,1.00,8.73,,,
2016-10-22 05:00,14.8,,,2965,996.53,123.90,8.56,9.96,4.46,1.00,7.17,,,